{"data":{"norad_id":68542,"epoch":"2026-05-25T00:27:43.722720Z","epoch_age_seconds":76824,"freshness":"FRESH","line1":"1 68542U 26070A   26145.01925605  .00015680  00000+0  47417-3 0  9991","line2":"2 68542  53.1609   7.8659 0001334  77.2228 282.8923 15.34403587  8243","mean_motion":15.34403587,"eccentricity":0.0001334,"inclination_deg":53.1609,"raan_deg":7.8659,"arg_perigee_deg":77.2228,"mean_anomaly_deg":282.8923,"bstar":0.00047417,"rev_number":824,"period_min":93.847538691918,"perigee_km":461.78001224212,"apogee_km":463.60514557377,"semimajor_km":6840.8295789079,"source":"CELESTRAK","updated_at":"2026-05-25T13:38:21.959152Z"}}